Home   Weather   Payson   Past weeks
Flag for USA

Past Weather in Payson, Arizona, USA — Yesterday and Last 2 Weeks

Now
72 °F

Sunny.


Feels Like: 77 °F
Forecast: 96 / 71 °F
Wind: No wind

Location: Payson

Current Time: Jul 16, 2019 at 7:38:22 am

Latest Report: Jul 16, 2019 at 6:35 am


Visibility: 10 mi

Pressure: 30.14 "Hg (25.26 "Hg at 1524m altitude)

Humidity: 44%

Dew Point: 48 °F

Location of PaysonLocation

Past Weather in Payson — Graph

°F

Payson Temperature Yesterday

Maximum temperature yesterday: 95 °F (at 2:35 pm)
Minimum temperature yesterday: 64 °F (at 4:35 am)
Average temperature yesterday: 83 °F

High & Low Weather Summary for the Past Weeks

 TemperatureHumidityPressure
High97 °F (Jul 11, 1:15 pm)69% (Jul 13, 5:55 pm)30.29 "Hg (Jul 13, 5:55 pm)
Low57 °F (Jul 4, 5:55 am)5% (Jul 8, 2:55 pm)30.04 "Hg (Jul 3, 4:35 pm)
Average78 °F25%30.18 "Hg
* Reported Jul 1 6:35 am — Jul 16 6:15 am, Payson. Weather by CustomWeather, © 2019

Note: Actual official high and low records may vary slightly from our data, if they occured in-between our weather recording intervals... More about our weather records

Advertising

Payson Weather History for the Previous 24 Hours

Scroll right to see more
 ConditionsComfort  
Time TempWeatherWind HumidityBarometerVisibility
6:15 am
Tue, Jul 16
72 °FSunny.No wind44%30.13 "Hg10 mi
5:55 am70 °FSunny.No wind46%30.13 "Hg10 mi
5:35 am70 °FSunny.No wind43%30.13 "Hg10 mi
5:15 am68 °FClear.No wind49%30.12 "Hg10 mi
4:55 am68 °FClear.No wind49%30.12 "Hg10 mi
4:35 am70 °FClear.No wind46%30.12 "Hg10 mi
4:15 am70 °FClear.No wind46%30.11 "Hg10 mi
3:55 am72 °FClear.No wind41%30.11 "Hg10 mi
3:35 am72 °FClear.No wind44%30.10 "Hg10 mi
3:15 am72 °FClear.No wind44%30.11 "Hg10 mi
2:55 am73 °FClear.No wind41%30.11 "Hg10 mi
2:35 am73 °FClear.No wind41%30.11 "Hg10 mi
2:15 am72 °FClear.No wind44%30.11 "Hg10 mi
1:55 am73 °FClear.No wind41%30.11 "Hg10 mi
1:35 am73 °FClear.No wind41%30.12 "Hg10 mi
12:55 am75 °FClear.No wind39%30.13 "Hg10 mi
12:35 am75 °FClear.No wind39%30.13 "Hg10 mi
12:15 am77 °FClear.No wind36%30.13 "Hg10 mi
11:55 pm
Mon, Jul 15
79 °FClear.No wind32%30.13 "Hg10 mi
11:35 pm79 °FClear.No wind32%30.13 "Hg10 mi
11:15 pm79 °FClear.No wind34%30.13 "Hg10 mi
10:55 pm81 °FClear.No wind30%30.13 "Hg10 mi
10:35 pm82 °FClear.5 mph28%30.13 "Hg10 mi
10:15 pm84 °FClear.6 mph27%30.13 "Hg10 mi
9:55 pm84 °FClear.6 mph27%30.13 "Hg10 mi
9:35 pm84 °FClear.6 mph27%30.13 "Hg10 mi
9:15 pm86 °FClear.6 mph25%30.12 "Hg10 mi
8:55 pm86 °FClear.5 mph25%30.12 "Hg10 mi
8:35 pm86 °FClear.6 mph24%30.11 "Hg10 mi
8:15 pm86 °FClear.6 mph24%30.11 "Hg10 mi
7:55 pm86 °FClear.No wind25%30.10 "Hg10 mi
7:35 pm88 °FSunny.8 mph22%30.09 "Hg10 mi
7:15 pm90 °FSunny.8 mph20%30.09 "Hg10 mi
6:55 pm91 °FSunny.12 mph18%30.08 "Hg10 mi
6:35 pm93 °FSunny.12 mph17%30.08 "Hg10 mi
6:15 pm93 °FSunny.7 mph17%30.08 "Hg10 mi
5:55 pm93 °FSunny.14 mph17%30.07 "Hg10 mi
5:35 pm95 °FSunny.8 mph16%30.07 "Hg10 mi
5:15 pm95 °FSunny.7 mph18%30.08 "Hg10 mi
4:55 pm95 °FSunny.15 mph18%30.08 "Hg10 mi
4:35 pm95 °FPassing clouds.10 mph18%30.08 "Hg10 mi
4:15 pm95 °FPassing clouds.9 mph19%30.09 "Hg10 mi
3:55 pm95 °FSunny.5 mph18%30.10 "Hg10 mi
3:35 pm95 °FPassing clouds.7 mph18%30.10 "Hg10 mi
3:15 pm95 °FSunny.5 mph16%30.11 "Hg10 mi
2:55 pm93 °FSunny.7 mph16%30.12 "Hg10 mi
2:35 pm95 °FSunny.8 mph15%30.13 "Hg10 mi
2:15 pm93 °FSunny.7 mph17%30.13 "Hg10 mi
1:55 pm93 °FSunny.10 mph17%30.14 "Hg10 mi
1:35 pm93 °FSunny.13 mph19%30.15 "Hg10 mi
1:15 pm93 °FSunny.10 mph17%30.16 "Hg10 mi
12:55 pm93 °FSunny.6 mph19%30.16 "Hg10 mi
12:35 pm91 °FSunny.10 mph21%30.17 "Hg10 mi
12:15 pm91 °FSunny.12 mph20%30.18 "Hg10 mi
11:55 am91 °FSunny.7 mph20%30.18 "Hg10 mi
11:35 am91 °FSunny.8 mph21%30.19 "Hg10 mi
11:15 am91 °FSunny.9 mph23%30.19 "Hg10 mi
10:55 am90 °FSunny.7 mph24%30.20 "Hg10 mi
10:35 am88 °FSunny.6 mph25%30.20 "Hg10 mi
10:15 am88 °FSunny.6 mph25%30.20 "Hg10 mi
9:55 am88 °FSunny.3 mph25%30.21 "Hg10 mi
9:35 am86 °FSunny.3 mph27%30.21 "Hg10 mi
9:15 am86 °FSunny.3 mph29%30.21 "Hg10 mi
8:55 am84 °FSunny.5 mph29%30.21 "Hg10 mi
8:35 am82 °FSunny.5 mph32%30.22 "Hg10 mi
8:15 am81 °FSunny.No wind34%30.22 "Hg10 mi
7:55 am79 °FSunny.No wind37%30.22 "Hg10 mi
7:35 am77 °FSunny.No wind42%30.22 "Hg10 mi
7:15 am73 °FSunny.No wind44%30.22 "Hg10 mi
Weather by CustomWeather, © 2019

See weather overview

LIVE PARTIAL LUNAR ECLIPSE – Watch the eclipse as it happens